Location: Maccacari
(45.1333°N, 11.1333°E)
Time: 14:58:03
(UTC+00:00)

S-56A Canister/Altair - Pass Details

Date: 27 January 2021
Orbit: 631 x 2501 km, 38.9° (Epoch: 01 March)

Event Time Altitude Azimuth Distance (km) Brightness Sun altitude
Rises 03:29:29 0° 262° (W) 2,940 - -33.7°
Reaches altitude 10° 03:31:53 10° 254° (WSW) 2,005 - -33.3°
Maximum altitude 03:35:57 37° 186° (S) 1,018 - -32.6°
Exits shadow 03:38:07 24° 137° (SE) 1,416 9.1 -32.2°
Drops below altitude 10° 03:40:33 10° 119° (ESE) 2,264 10.5 -31.8°
Sets 03:43:24 0° 112° (ESE) 3,382 11.7 -31.3°
